DW1234 Weather Reports


time (UTC)temp
F
wind
direction
speed
knots
gust
knots
rain 1hr
in
rain 24hr
in
rain mn
in
humidity
%
barometer
mb
20260506050233 49 328 6.1 9.6 0.00 0.01 0.01 41 1015.9
20260506050107 49 346 5.2 9.6 0.00 0.01 0.01 40 1016.0
20260506044733 50 344 5.2 8.7 0.00 0.01 0.01 40 1015.8
20260506044510 49 355 4.3 8.7 0.00 0.01 0.01 40 1015.7
20260506044242 50 355 5.2 8.7 0.00 0.01 0.01 40 1015.6
20260506043724 50 355 5.2 7.8 0.00 0.01 0.01 40 1015.7
20260506043235 50 344 7.0 9.6 0.00 0.01 0.01 40 1015.7
20260506043016 49 360 5.2 9.6 0.00 0.01 0.01 40 1015.7
20260506042748 50 360 7.0 9.6 0.00 0.01 0.01 40 1015.7
20260506042232 50 350 6.1 8.7 0.00 0.01 0.01 40 1015.6
20260506041744 50 348 4.3 7.8 0.00 0.01 0.01 40 1015.6
20260506041516 50 343 4.3 7.8 0.00 0.01 0.01 41 1015.6
20260506041229 50 347 5.2 7.8 0.00 0.01 0.01 40 1015.5
20260506040740 50 360 4.3 7.8 0.00 0.01 0.01 40 1015.4
20260506040247 50 342 4.3 7.8 0.00 0.01 0.01 40 1015.4
20260506040033 50 351 4.3 8.7 0.00 0.01 0.01 40 1015.4
20260506035731 51 355 4.3 8.7 0.00 0.01 0.01 40 1015.4
20260506035306 51 348 5.2 8.7 0.00 0.01 0.01 39 1015.4
20260506034725 51 333 6.1 8.7 0.00 0.01 0.01 39 1015.5
20260506034556 50 360 5.2 9.6 0.00 0.01 0.01 39 1015.5
20260506034237 51 350 5.2 9.6 0.00 0.01 0.01 39 1015.5
20260506033746 51 344 5.2 9.6 0.00 0.01 0.01 39 1015.4
20260506033230 51 345 6.1 9.6 0.00 0.01 0.01 38 1015.4
20260506033058 51 348 5.2 9.6 0.00 0.01 0.01 38 1015.4
20260506032737 51 345 6.1 8.7 0.00 0.01 0.01 38 1015.3
20260506032249 51 5 6.1 8.7 0.00 0.01 0.01 38 1015.3
20260506031738 51 343 6.1 8.7 0.00 0.01 0.01 38 1015.3
20260506031546 51 348 6.1 8.7 0.00 0.01 0.01 38 1015.2
20260506031224 52 360 6.1 9.6 0.00 0.01 0.01 38 1015.2
20260506030736 52 327 6.1 12.2 0.00 0.01 0.01 37 1015.2
20260506030248 52 5 8.7 12.2 0.00 0.01 0.01 37 1015.1
20260506030057 51 342 7.0 13.9 0.00 0.01 0.01 37 1015.1
20260506025732 52 355 7.0 13.9 0.00 0.01 0.01 37 1015.0
20260506025243 52 351 10.4 13.9 0.00 0.01 0.01 36 1014.9
20260506024721 52 355 10.4 13.9 0.00 0.01 0.01 36 1014.7
20260506024552 51 335 7.8 12.2 0.00 0.01 0.01 37 1014.7
20260506024254 52 345 7.0 12.2 0.00 0.01 0.01 37 1014.7
20260506023744 52 9 7.8 13.0 0.00 0.01 0.01 37 1014.7
20260506023230 52 336 8.7 13.0 0.00 0.01 0.01 37 1014.6
20260506023042 52 355 7.8 13.0 0.00 0.01 0.01 37 1014.6
20260506022744 52 345 7.8 13.0 0.00 0.01 0.01 37 1014.5
20260506022229 52 329 7.8 13.0 0.00 0.01 0.01 37 1014.4
20260506021739 52 14 8.7 13.0 0.00 0.01 0.01 37 1014.3
20260506021536 52 342 8.7 13.9 0.00 0.01 0.01 37 1014.3
20260506021247 53 5 9.6 13.9 0.00 0.01 0.01 37 1014.3
20260506020729 53 355 9.6 14.8 0.00 0.01 0.01 37 1014.3
20260506020238 53 346 9.6 15.6 0.00 0.01 0.01 36 1014.3
20260506020036 52 342 8.7 15.6 0.00 0.01 0.01 36 1014.2
20260506015749 53 343 10.4 14.8 0.00 0.01 0.01 36 1014.2
20260506015238 53 334 10.4 13.9 0.00 0.01 0.01 37 1014.0
20260506014723 53 13 8.7 12.2 0.00 0.01 0.01 37 1014.1
20260506014513 52 355 8.7 13.0 0.00 0.01 0.01 37 1014.0
20260506014237 53 335 7.0 13.0 0.00 0.01 0.01 38 1014.0
20260506013745 53 355 7.8 13.0 0.00 0.01 0.01 37 1013.9
20260506013228 53 348 7.8 15.6 0.00 0.01 0.01 37 1013.9
20260506013105 53 5 7.8 15.6 0.00 0.01 0.01 37 1013.9
20260506013006 53 355 7.8 15.6 0.00 0.01 0.01 37 1013.8
20260506012721 53 342 8.7 15.6 0.00 0.01 0.01 37 1013.9
20260506012235 54 360 10.4 14.8 0.00 0.01 0.01 36 1013.8
20260506011721 54 349 10.4 16.5 0.00 0.01 0.01 36 1013.7
20260506011517 53 320 10.4 16.5 0.00 0.01 0.01 36 1013.6
20260506011235 54 342 8.7 16.5 0.00 0.01 0.01 36 1013.7
20260506010745 54 331 9.6 16.5 0.00 0.01 0.01 36 1013.6
20260506010226 54 342 9.6 16.5 0.00 0.01 0.01 35 1013.6
20260506010041 54 360 11.3 19.1 0.00 0.01 0.01 35 1013.4
20260506005739 54 341 9.6 19.1 0.00 0.01 0.01 35 1013.5
20260506005221 54 348 10.4 19.1 0.00 0.01 0.01 35 1013.6
20260506004733 54 355 8.7 15.6 0.00 0.01 0.01 36 1013.5
20260506004525 54 333 9.6 15.6 0.00 0.01 0.01 35 1013.4
20260506004308 54 355 11.3 16.5 0.00 0.01 0.01 35 1013.4
20260506003729 55 344 12.2 18.2 0.00 0.01 0.01 35 1013.3
20260506003243 55 355 9.6 20.0 0.00 0.01 0.01 35 1013.2
20260506003011 54 360 12.2 20.0 0.00 0.01 0.01 35 1012.9
20260506002729 55 336 13.9 20.0 0.00 0.01 0.01 34 1013.2
20260506002305 55 360 10.4 19.1 0.00 0.01 0.01 35 1013.2
20260506001722 55 344 11.3 19.1 0.00 0.01 0.01 34 1013.2
20260506001549 55 313 13.9 19.1 0.00 0.01 0.01 34 1013.0
20260506001235 55 317 9.6 16.5 0.00 0.01 0.01 35 1013.3
20260506000745 55 5 12.2 16.5 0.00 0.01 0.01 34 1013.3
20260506000235 55 350 11.3 15.6 0.00 0.01 0.01 34 1013.2
20260506000011 55 333 11.3 18.2 0.00 0.01 0.01 35 1013.0
20260505235747 56 355 10.4 18.2 0.00 0.01 0.01 35 1013.1
20260505235234 56 350 12.2 18.2 0.00 0.01 0.01 34 1013.1
20260505234746 56 355 12.2 19.1 0.00 0.01 0.01 34 1013.0
20260505234532 56 5 12.2 22.6 0.00 0.01 0.01 35 1012.8
20260505234228 56 346 12.2 22.6 0.00 0.01 0.01 34 1013.0
20260505233738 57 330 16.5 22.6 0.00 0.01 0.01 34 1012.9
20260505233251 57 340 15.6 20.9 0.00 0.01 0.01 34 1012.8
20260505233027 56 327 13.9 18.2 0.00 0.01 0.01 34 1012.6
20260505232732 57 291 10.4 16.5 0.00 0.01 0.01 35 1012.7
20260505232244 57 327 10.4 14.8 0.00 0.01 0.01 35 1012.7
20260505231728 57 339 10.4 16.5 0.00 0.01 0.01 35 1012.7
20260505231519 56 338 9.6 16.5 0.00 0.01 0.01 35 1012.5
20260505231239 57 329 11.3 16.5 0.00 0.01 0.01 34 1012.6
20260505230747 57 326 8.7 16.5 0.00 0.01 0.01 34 1012.7
20260505230236 57 287 9.6 16.5 0.00 0.01 0.01 34 1012.8
20260505230042 57 355 10.4 16.5 0.00 0.01 0.01 34 1012.6
20260505225749 57 336 12.2 16.5 0.00 0.01 0.01 34 1012.8
20260505225231 57 338 10.4 15.6 0.00 0.01 0.01 35 1012.7
20260505224804 57 331 10.4 15.6 0.00 0.01 0.01 35 1012.7
20260505224532 57 355 10.4 15.6 0.00 0.01 0.01 34 1012.5
20260505224231 57 338 10.4 15.6 0.00 0.01 0.01 35 1012.7
20260505223742 58 319 8.7 14.8 0.00 0.01 0.01 35 1012.8
20260505223231 58 325 9.6 14.8 0.00 0.01 0.01 36 1012.7
20260505223021 58 292 8.7 14.8 0.00 0.01 0.01 35 1012.5
20260505222726 58 315 8.7 15.6 0.00 0.01 0.01 35 1012.7
20260505222239 58 306 9.6 15.6 0.00 0.01 0.01 35 1012.7
20260505221749 58 312 10.4 15.6 0.00 0.01 0.01 35 1012.7
20260505221530 58 326 9.6 15.6 0.00 0.01 0.01 36 1012.4
20260505221233 58 5 7.0 10.4 0.00 0.01 0.01 37 1012.7
20260505220740 58 355 6.1 10.4 0.00 0.01 0.01 36 1012.7
20260505220222 58 325 7.8 16.5 0.00 0.01 0.01 36 1012.7
20260505220033 57 290 7.8 16.5 0.00 0.01 0.01 37 1012.4
20260505215735 58 308 8.7 16.5 0.00 0.01 0.01 36 1012.7
20260505215242 58 333 10.4 15.6 0.00 0.01 0.01 36 1012.7
20260505214725 58 355 10.4 19.1 0.00 0.01 0.01 35 1012.8
20260505214558 57 314 10.4 19.1 0.00 0.01 0.01 35 1012.4
20260505214238 58 332 12.2 19.1 0.00 0.01 0.01 36 1012.8
20260505213723 58 317 9.6 16.5 0.00 0.01 0.01 36 1012.8
20260505213236 58 341 11.3 16.5 0.00 0.01 0.01 35 1012.9
20260505213056 58 331 11.3 16.5 0.00 0.01 0.01 36 1012.5
20260505212731 58 331 12.2 16.5 0.00 0.01 0.01 35 1012.8
20260505212225 59 335 7.0 16.5 0.00 0.01 0.01 38 1012.9
20260505211737 58 321 7.8 17.4 0.00 0.01 0.01 38 1013.0
20260505211545 58 5 11.3 17.4 0.00 0.01 0.01 36 1012.7
20260505211224 58 329 12.2 15.6 0.00 0.01 0.01 36 1013.0
20260505210731 59 327 11.3 15.6 0.00 0.01 0.01 36 1013.1
20260505210244 59 323 10.4 20.0 0.00 0.01 0.01 36 1013.1
20260505210058 59 346 10.4 20.0 0.00 0.01 0.01 36 1012.7
20260505205727 59 327 12.2 20.0 0.00 0.01 0.01 35 1013.0
20260505205239 59 326 12.2 18.2 0.00 0.01 0.01 35 1013.0
20260505204723 59 5 7.8 18.2 0.00 0.01 0.01 36 1013.2
20260505204605 59 319 12.2 18.2 0.00 0.01 0.01 34 1012.8
20260505204500 59 336 12.2 18.2 0.00 0.01 0.01 35 1012.7
20260505204238 60 317 10.4 18.2 0.00 0.01 0.01 37 1013.1
20260505203748 59 317 10.4 15.6 0.00 0.01 0.01 36 1013.2
20260505203229 59 342 10.4 16.5 0.00 0.01 0.01 35 1013.2
20260505203015 59 355 9.6 17.4 0.00 0.01 0.01 37 1012.8
20260505202737 59 345 10.4 17.4 0.00 0.01 0.01 35 1013.2
20260505202246 60 325 12.2 17.4 0.00 0.01 0.01 35 1013.3
20260505201731 60 336 9.6 18.2 0.00 0.01 0.01 36 1013.3
20260505201510 59 329 11.3 19.1 0.00 0.01 0.01 35 1013.0
20260505201244 60 325 12.2 19.1 0.00 0.01 0.01 36 1013.4
20260505200733 60 312 11.3 19.1 0.00 0.01 0.01 36 1013.5
20260505200245 61 360 7.8 13.9 0.00 0.01 0.01 37 1013.4
20260505200031 60 35 6.1 12.2 0.00 0.01 0.01 40 1012.9
20260505195735 60 348 7.0 12.2 0.00 0.01 0.01 38 1013.5
20260505195243 60 360 9.6 13.0 0.00 0.01 0.01 35 1013.5
20260505194725 59 321 9.6 14.8 0.00 0.01 0.01 35 1013.6
20260505194544 59 315 10.4 14.8 0.00 0.01 0.01 37 1013.2
20260505194237 59 282 8.7 14.8 0.00 0.01 0.01 38 1013.7
20260505193748 59 347 10.4 20.0 0.00 0.01 0.01 35 1013.6
20260505193230 59 5 11.3 20.0 0.00 0.01 0.01 36 1013.6
20260505193048 59 17 11.3 20.0 0.00 0.01 0.01 36 1013.2
20260505192801 60 332 7.8 13.0 0.00 0.01 0.01 37 1013.7
20260505192224 60 261 8.7 13.9 0.00 0.01 0.01 38 1013.7
20260505191736 60 338 10.4 13.9 0.00 0.01 0.01 37 1013.8
20260505191527 59 323 9.6 14.8 0.00 0.01 0.01 37 1013.2
20260505191243 59 344 8.7 15.6 0.00 0.01 0.01 39 1013.8
20260505190723 59 338 11.3 15.6 0.00 0.01 0.01 37 1013.8
20260505190234 59 347 7.8 11.3 0.00 0.01 0.01 40 1013.9
20260505190027 59 302 6.1 11.3 0.00 0.01 0.01 40 1013.3
20260505185745 59 348 4.3 8.7 0.00 0.01 0.01 40 1013.9
20260505185226 60 290 6.1 8.7 0.00 0.01 0.01 42 1013.9
20260505184758 60 17 3.5 11.3 0.00 0.01 0.01 44 1013.9
20260505184511 60 5 4.3 11.3 0.00 0.01 0.01 43 1013.4
20260505184251 61 300 7.0 11.3 0.00 0.01 0.01 42 1014.1
20260505183728 60 308 6.1 15.6 0.00 0.01 0.01 42 1014.0
20260505183238 59 355 6.1 18.2 0.00 0.01 0.01 40 1014.2
20260505183016 59 355 9.6 18.2 0.00 0.01 0.01 39 1013.5
20260505182722 60 338 13.0 18.2 0.00 0.01 0.01 40 1014.2
20260505182235 59 325 8.7 15.6 0.00 0.01 0.01 41 1014.2
20260505181746 60 350 8.7 15.6 0.00 0.01 0.01 40 1014.3
20260505181554 59 344 7.0 15.6 0.00 0.01 0.01 44 1013.7
20260505181238 58 318 3.5 9.6 0.00 0.01 0.01 45 1014.3
20260505180748 60 317 7.0 14.8 0.00 0.01 0.01 41 1014.3
20260505180230 59 325 10.4 14.8 0.00 0.01 0.01 44 1014.3
20260505180106 58 290 6.1 13.0 0.00 0.01 0.01 46 1013.7
20260505175737 58 313 3.5 11.3 0.00 0.01 0.01 50 1014.4
20260505175249 58 302 6.1 12.2 0.00 0.01 0.01 46 1014.3
20260505174732 57 11 7.8 12.2 0.00 0.01 0.01 43 1014.2
20260505174604 57 28 8.7 12.2 0.00 0.01 0.01 42 1013.6
20260505174307 58 360 9.6 13.0 0.00 0.01 0.01 44 1014.3
20260505173729 58 326 7.0 13.9 0.00 0.01 0.01 43 1014.3
20260505173242 59 340 7.8 13.0 0.00 0.01 0.01 44 1014.4
20260505173042 57 320 5.2 13.0 0.00 0.01 0.01 45 1013.9
20260505172723 58 15 5.2 13.0 0.00 0.01 0.01 45 1014.6
20260505172229 56 13 7.0 13.0 0.00 0.01 0.01 43 1014.6
20260505171744 56 324 7.0 13.0 0.00 0.01 0.01 47 1014.6
20260505171541 56 329 2.6 13.0 0.00 0.01 0.01 46 1013.9
20260505171230 57 321 7.8 13.0 0.00 0.01 0.01 44 1014.7
20260505170738 57 302 5.2 10.4 0.00 0.01 0.01 50 1014.6
20260505170221 56 325 7.0 10.4 0.00 0.01 0.01 49 1014.7
20260505170041 55 305 7.0 10.4 0.00 0.01 0.01 48 1013.9
20260505165750 55 321 7.0 10.4 0.00 0.01 0.01 50 1014.6
20260505165240 55 328 7.0 10.4 0.00 0.01 0.01 51 1014.6
20260505164723 55 319 7.0 11.3 0.00 0.01 0.01 52 1014.6
20260505164524 54 325 5.2 12.2 0.00 0.01 0.01 53 1013.9
20260505164232 55 318 8.7 12.2 0.00 0.01 0.01 53 1014.6
20260505163743 54 327 7.8 12.2 0.00 0.01 0.01 53 1014.7
20260505163226 54 336 7.0 10.4 0.00 0.01 0.01 54 1014.6
20260505163026 53 308 6.1 10.4 0.00 0.01 0.01 56 1013.9
20260505162739 53 355 7.8 10.4 0.00 0.01 0.01 55 1014.4
20260505162223 53 320 7.0 9.6 0.00 0.01 0.01 57 1014.4
20260505161732 54 348 6.1 10.4 0.00 0.01 0.01 57 1014.3
20260505161536 53 355 5.2 10.4 0.00 0.01 0.01 57 1013.5
20260505161245 53 334 7.8 10.4 0.00 0.01 0.01 54 1014.3
20260505160726 53 331 5.2 8.7 0.00 0.01 0.01 58 1014.3
20260505160231 53 345 5.2 8.7 0.00 0.01 0.01 60 1014.3
20260505153306 52 355 7.0 9.6 0.00 0.01 0.01 55 1014.2
20260505153056 52 334 5.2 8.7 0.00 0.01 0.01 57 1013.4
20260505152729 53 344 3.5 7.0 0.00 0.01 0.01 57 1014.2
20260505152243 53 317 3.5 5.2 0.00 0.01 0.01 58 1014.0
20260505151724 52 294 3.5 6.1 0.00 0.01 0.01 58 1014.0
20260505151604 52 355 3.5 7.0 0.00 0.01 0.01 56 1013.1
20260505151237 52 340 3.5 7.8 0.00 0.01 0.01 56 1013.9
20260505150747 52 348 4.3 8.7 0.00 0.01 0.01 55 1013.7
20260505150237 52 22 5.2 8.7 0.00 0.01 0.01 54 1013.7
20260505140230 50 334 3.5 7.0 0.00 0.01 0.01 61 1013.5
20260505130233 49 315 1.7 3.5 0.00 0.01 0.01 69 1012.8
20260505124735 48 323 2.6 5.2 0.00 0.01 0.01 71 1012.6
20260505124540 48 319 2.6 5.2 0.00 0.01 0.01 71 1011.6
20260505124248 48 327 3.5 5.2 0.00 0.01 0.01 72 1012.4
20260505123728 48 326 3.5 5.2 0.00 0.01 0.01 74 1012.3
20260505123241 48 338 3.5 5.2 0.00 0.01 0.01 74 1012.0
20260505123035 47 325 3.5 7.0 0.00 0.01 0.01 75 1011.0
20260505122723 48 337 3.5 7.0 0.00 0.01 0.01 75 1011.8
20260505122235 48 332 3.5 7.0 0.00 0.01 0.01 76 1011.8
20260505121801 48 351 4.3 7.0 0.00 0.01 0.01 78 1011.8
20260505121518 47 360 2.6 5.2 0.00 0.01 0.01 79 1010.9
20260505121254 48 333 2.6 3.5 0.00 0.01 0.01 79 1011.8
20260505120742 48 341 2.6 3.5 0.00 0.01 0.01 80 1011.7
20260505120225 47 341 1.7 2.6 0.00 0.01 0.01 80 1011.6
20260505120005 47 355 0.9 2.6 0.00 0.01 0.01 80 1010.6
20260505115737 47 355 1.7 2.6 0.00 0.01 0.01 80 1011.6
20260505115247 47 355 1.7 3.5 0.00 0.01 0.01 81 1011.5
20260505114734 47 355 2.6 3.5 0.00 0.01 0.01 81 1011.3
20260505114531 47 355 1.7 4.3 0.00 0.01 0.01 81 1010.4
20260505114248 47 355 2.6 4.3 0.00 0.01 0.01 81 1011.2
20260505113730 47 5 3.5 4.3 0.00 0.01 0.01 81 1011.2
20260505113242 47 355 3.5 4.3 0.00 0.01 0.01 81 1011.2
20260505113030 47 360 2.6 4.3 0.00 0.01 0.01 81 1010.2
20260505112726 47 5 3.5 4.3 0.00 0.01 0.01 81 1011.2
20260505112236 47 5 3.5 4.3 0.00 0.01 0.01 80 1011.1
20260505111749 47 360 3.5 3.5 0.00 0.01 0.01 80 1011.2
20260505111525 47 360 2.6 3.5 0.00 0.01 0.01 80 1010.3
20260505111242 47 360 2.6 3.5 0.00 0.01 0.01 80 1011.3
20260505110749 47 253 2.6 3.5 0.00 0.01 0.01 79 1011.2
20260505110233 48 253 2.6 2.6 0.00 0.01 0.01 79 1011.2
20260505101721 48 253 1.7 2.6 0.00 0.01 0.01 79 1011.6
20260505101533 48 253 1.7 2.6 0.00 0.01 0.01 79 1010.6
20260505101234 48 253 1.7 2.6 0.00 0.01 0.01 79 1011.5
20260505100744 48 253 1.7 3.5 0.00 0.01 0.01 80 1011.5
20260505100229 49 253 2.6 3.5 0.00 0.01 0.01 80 1011.6
20260505100033 48 253 1.7 3.5 0.00 0.01 0.01 79 1010.7
20260505095742 49 267 2.6 3.5 0.00 0.01 0.01 79 1011.6
20260505095225 49 268 2.6 3.5 0.00 0.01 0.01 80 1011.6
20260505094733 49 240 2.6 3.5 0.00 0.01 0.01 79 1011.6
20260505094541 48 229 0.9 3.5 0.00 0.01 0.01 79 1010.6
20260505094248 49 229 1.7 3.5 0.00 0.01 0.01 79 1011.6
20260505093728 49 243 1.7 3.5 0.00 0.01 0.01 78 1011.5
20260505093240 49 275 1.7 3.5 0.00 0.01 0.01 77 1011.3
20260505093042 49 270 1.7 3.5 0.00 0.01 0.01 77 1010.4
20260505092723 49 296 2.6 3.5 0.00 0.01 0.01 77 1011.3
20260505092233 49 280 1.7 3.5 0.00 0.01 0.01 76 1011.2
20260505091744 49 303 2.6 3.5 0.00 0.01 0.01 76 1011.1
20260505091527 49 307 2.6 3.5 0.00 0.01 0.01 76 1010.0
20260505091229 49 306 2.6 3.5 0.00 0.01 0.01 76 1010.9
20260505090756 49 317 2.6 3.5 0.01 0.01 0.01 76 1010.8
20260505090245 49 319 1.7 2.6 0.01 0.01 0.01 76 1010.5
20260505090048 49 319 1.7 2.6 0.01 0.01 0.01 76 1009.6
20260505085735 50 319 1.7 2.6 0.01 0.01 0.01 76 1010.6
20260505085247 50 271 1.7 2.6 0.01 0.01 0.01 76 1010.5
20260505084731 50 271 1.7 3.5 0.01 0.01 0.01 76 1010.5
20260505084555 49 271 0.9 3.5 0.01 0.01 0.01 76 1009.6
20260505084245 50 267 2.6 3.5 0.01 0.01 0.01 76 1010.6
20260505083728 50 256 1.7 4.3 0.01 0.01 0.01 76 1010.6
20260505083235 50 258 2.6 4.3 0.01 0.01 0.01 75 1010.6
20260505083006 49 264 2.6 4.3 0.01 0.01 0.01 75 1009.6
20260505082806 50 259 2.6 7.0 0.01 0.01 0.01 75 1010.6
20260505082231 50 280 3.5 7.0 0.01 0.01 0.01 74 1010.7
20260505081742 50 289 4.3 6.1 0.01 0.01 0.01 72 1010.5
20260505081554 49 288 2.6 4.3 0.01 0.01 0.01 71 1009.4
20260505081226 50 292 2.6 3.5 0.01 0.01 0.01 71 1010.3
20260505080736 50 320 1.7 2.6 0.00 0.00 0.00 70 1009.9
20260505080255 50 320 1.7 4.3 0.00 0.00 0.00 69 1009.8
20260505080038 49 329 1.7 4.3 0.00 0.00 0.00 70 1008.7
20260505075751 50 345 2.6 4.3 0.00 0.00 0.00 70 1009.9
20260505075308 50 311 3.5 4.3 0.00 0.00 0.00 69 1010.0
20260505074830 50 299 2.6 3.5 0.00 0.00 0.00 69 1009.9
20260505074545 50 317 1.7 3.5 0.00 0.00 0.00 69 1008.9
20260505074234 50 317 1.7 3.5 0.00 0.00 0.00 69 1009.8
20260505073746 50 317 1.7 3.5 0.00 0.00 0.00 68 1009.8
20260505073230 50 284 3.5 3.5 0.00 0.00 0.00 68 1010.1
20260505073046 50 284 2.6 3.5 0.00 0.00 0.00 67 1009.2
20260505072736 51 280 1.7 2.6 0.00 0.00 0.00 67 1010.2
20260505072247 51 5 0.9 2.6 0.00 0.00 0.00 66 1009.8
20260505071729 51 5 0.9 2.6 0.00 0.00 0.00 65 1009.8
20260505071556 50 5 0.9 3.5 0.00 0.00 0.00 65 1008.8
20260505071302 51 5 1.7 3.5 0.00 0.00 0.00 64 1009.8
20260505070722 51 11 1.7 2.6 0.00 0.00 0.00 64 1009.7
20260505070233 51 11 0.9 2.6 0.00 0.00 0.00 63 1009.9
20260505070031 50 44 0.9 2.6 0.00 0.00 0.00 63 1008.9
20260505065742 51 34 0.9 2.6 0.00 0.00 0.00 63 1009.8
20260505065230 51 5 0.9 2.6 0.00 0.00 0.00 63 1009.9
20260505064743 51 5 1.7 3.5 0.00 0.00 0.00 62 1009.8
20260505064512 51 5 0.9 3.5 0.00 0.00 0.00 62 1008.8
20260505064229 51 5 1.7 4.3 0.00 0.00 0.00 62 1009.8
20260505063739 52 348 2.6 7.0 0.00 0.00 0.00 61 1010.0
20260505063250 52 26 4.3 7.0 0.00 0.00 0.00 61 1009.7
20260505063003 51 15 4.3 7.8 0.00 0.00 0.00 60 1008.9
20260505062732 52 5 4.3 9.6 0.00 0.00 0.00 60 1009.9
20260505062242 52 347 6.1 10.4 0.00 0.00 0.00 58 1010.1
20260505061726 52 5 7.8 10.4 0.00 0.00 0.00 56 1010.3
20260505061509 52 14 7.8 12.2 0.00 0.00 0.00 56 1009.3
20260505061236 52 360 6.1 12.2 0.00 0.00 0.00 56 1010.3
20260505060746 52 43 8.7 12.2 0.00 0.00 0.00 55 1009.8
20260505060234 52 322 5.2 12.2 0.00 0.00 0.00 55 1009.8
20260505060100 52 18 7.0 13.9 0.00 0.00 0.00 54 1008.7
20260505055746 52 11 7.0 15.6 0.00 0.00 0.00 55 1009.9
20260505055229 52 5 10.4 15.6 0.00 0.00 0.00 54 1010.1
20260505054741 52 20 10.4 16.5 0.00 0.00 0.00 55 1010.0
20260505054554 52 355 10.4 16.5 0.00 0.00 0.00 54 1009.0
20260505054225 52 5 10.4 16.5 0.00 0.00 0.00 54 1010.0
20260505053731 52 12 12.2 18.2 0.00 0.00 0.00 54 1009.8
20260505053243 52 12 11.3 18.2 0.00 0.00 0.00 54 1009.5
20260505053009 52 350 13.0 18.2 0.00 0.00 0.00 55 1008.5
20260505052727 53 12 12.2 18.2 0.00 0.00 0.00 55 1009.4
20260505052238 53 360 13.0 18.2 0.00 0.00 0.00 54 1009.3
20260505051749 53 17 13.0 18.2 0.00 0.00 0.00 55 1009.4
20260505051514 52 24 10.4 16.5 0.00 0.00 0.00 56 1008.5
20260505051233 53 5 10.4 16.5 0.00 0.00 0.00 56 1009.7
20260505050742 53 355 12.2 15.6 0.00 0.00 0.00 55 1010.0